Manhattan, KS

11:08 PM CST on January 17, 2017 (GMT -0600)
Manhattan Regional

Weather History for KMHK - November, 2010

Change the Weather History Date:

Friday, November 19, 2010

  Actual Average Record
Temperature  
Mean Temperature 46 °F 41 °F  
Max Temperature 57 °F 53 °F 78 °F (2007)
Min Temperature 35 °F 29 °F 15 °F (2014)
Degree Days  
Heating Degree Days 19 24  
Month to date heating degree days 380  
Since 1 July heating degree days 779  
Cooling Degree Days 0 0  
Month to date cooling degree days 0  
Year to date cooling degree days 1361  
Moisture  
Dew Point 33 °F    
Average Humidity 65    
Maximum Humidity 83    
Minimum Humidity 42    
Precipitation  
Precipitation 0.00 in 0.05 in 0.05 in (2005)
Month to date precipitation 1.17  
Year to date precipitation 31.10  
Sea Level Pressure  
Sea Level Pressure 30.00 in    
Wind  
Wind Speed 9 mph (SSE)    
Max Wind Speed 15 mph    
Max Gust Speed 26 mph    
Visibility 10 miles    
Events      
T = Trace of Precipitation, MM = Missing Value Source: NWS Daily Summary

Daily Weather History Graph

Daily Weather History Graph

Search for Another Location

Airport or City:

Trip Planner

Search our weather history database for the weather conditions in past years. The results will help you decide how hot, cold, wet, or windy it might be!

Date:

Astronomy

Nov. 19, 2010 Rise Set
Actual Time 7:14 AM CST 5:09 PM CST
Civil Twilight 6:45 AM CST 5:38 PM CST
Nautical Twilight 6:12 AM CST 6:10 PM CST
Astronomical Twilight 5:41 AM CST 6:42 PM CST
Moon 3:40 PM CST (11/19) 5:13 AM CST (11/19)
Length of Visible Light 10h 52m
Length of Day
9h 55m
Waxing Gibbous, 96% of the Moon is Illuminated
Nov 19
Waxing Gibbous
Nov 21
Full
Nov 28
Last Quarter
Dec 5
New
Dec 13
First Quarter

Hourly Weather History & Observations

Time (CST) Temp. Windchill Dew Point Humidity Pressure Visibility Wind Dir Wind Speed Gust Speed Precip Events Conditions
12:52 AM 41.0 °F 34.3 °F 28.9 °F 62% 30.06 in 10.0 mi South 11.5 mph 21.9 mph N/A   Clear
1:52 AM 37.9 °F 30.9 °F 28.9 °F 70% 30.03 in 10.0 mi South 10.4 mph - N/A   Clear
2:52 AM 37.0 °F 30.4 °F 28.9 °F 73% 30.01 in 10.0 mi South 9.2 mph - N/A   Clear
3:52 AM 35.1 °F 30.1 °F 28.9 °F 78% 29.98 in 10.0 mi South 5.8 mph - N/A   Clear
4:52 AM 41.0 °F 33.1 °F 30.0 °F 65% 29.95 in 10.0 mi South 15.0 mph 26.5 mph N/A   Clear
5:52 AM 41.0 °F 33.5 °F 30.0 °F 65% 29.95 in 10.0 mi SSW 13.8 mph 19.6 mph N/A   Clear
6:52 AM 39.0 °F 33.4 °F 30.0 °F 70% 29.98 in 10.0 mi SSW 8.1 mph - N/A   Clear
7:52 AM 39.0 °F 32.3 °F 30.9 °F 73% 29.97 in 10.0 mi South 10.4 mph - N/A   Clear
8:52 AM 42.1 °F 36.1 °F 32.0 °F 67% 29.99 in 10.0 mi SSW 10.4 mph - N/A   Clear
9:52 AM 46.9 °F - 35.1 °F 63% 29.99 in 10.0 mi SSW 15.0 mph - N/A   Clear
10:52 AM 48.9 °F - 34.0 °F 56% 30.00 in 10.0 mi SSW 11.5 mph - N/A   Clear
11:52 AM 52.0 °F - 34.0 °F 50% 29.98 in 10.0 mi SSW 9.2 mph - N/A   Clear
12:52 PM 54.0 °F - 34.0 °F 47% 29.96 in 10.0 mi Variable 3.5 mph - N/A   Clear
1:52 PM 55.9 °F - 34.0 °F 44% 29.94 in 10.0 mi Variable 3.5 mph - N/A   Clear
2:52 PM 57.0 °F - 34.0 °F 42% 29.94 in 10.0 mi Calm Calm - N/A   Clear
3:52 PM 55.9 °F - 34.0 °F 44% 29.95 in 10.0 mi Calm Calm - N/A   Clear
4:52 PM 52.0 °F - 37.0 °F 57% 29.96 in 10.0 mi Calm Calm - N/A   Clear
5:52 PM 48.0 °F - 36.0 °F 63% 29.99 in 10.0 mi NNE 5.8 mph - N/A   Clear
6:52 PM 45.0 °F 40.6 °F 36.0 °F 71% 30.03 in 10.0 mi NNE 8.1 mph - N/A   Clear
7:52 PM 43.0 °F 36.8 °F 36.0 °F 76% 30.03 in 10.0 mi NE 11.5 mph - N/A   Clear
8:52 PM 41.0 °F 34.3 °F 35.1 °F 79% 30.05 in 10.0 mi NE 11.5 mph - N/A   Clear
9:52 PM 39.9 °F 33.9 °F 35.1 °F 83% 30.05 in 10.0 mi ENE 9.2 mph - N/A   Clear
10:52 PM 39.0 °F 32.3 °F 34.0 °F 82% 30.05 in 8.0 mi NE 10.4 mph - N/A   Clear
11:52 PM 39.0 °F 32.3 °F 34.0 °F 82% 30.04 in 8.0 mi ENE 10.4 mph - N/A   Clear